ZACUBE-1 (TSHEPISOSAT) (39417 NORAD) Tracking and Keplerian Element Data

This shows tracking and keplerian element data for the satellite.

Feedback or suggestion? Click here.




ElementValue
Catalog39417
NameZACUBE-1 (TSHEPISOSAT)
Epoch Orbit65347
Epoch Day351.39749824
Epoch Year2025
RAAN307.9496
Inclination97.8056
Eccentricity0.0042001
Argument of Perigee132.1904
Mean Anonmoly228.2897
Mean Motion14.9912435
Decay Rate3.28E-05
L11 39417U 13066B 25351.39749824 .00003280 00000+0 27002-3 0 9998
L22 39417 97.8056 307.9496 0042001 132.1904 228.2897 14.99124350653477



Live tracking and technical data element details for ZACUBE-1 (TSHEPISOSAT) (NORAD 39417). ZACUBE-1 (TSHEPISOSAT) can be tracked NOW for your location showing map with azimuth and elevation plus other details from your city location.







IsCatalogInMostPopularTable: catalog: 39417, numindb: 823
Update: records affected: 1



GetName: 39417 ZACUBE-1 (TSHEPISOSAT)

Hit Count: updated at: Thu, 21 May 2026 11:28:09 GMT